Location: Utrecht
(52.0907°N, 5.1214°E)
Time: 15:50:40
(UTC+02:00)

ESTCUBE 1 - Pass Details

Date: 01 July 2022
Orbit: 645 x 657 km, 97.9° (Epoch: 18 August)

Event Time Altitude Azimuth Distance (km) Brightness Sun altitude
Exits shadow 00:45:12 - 216° (SW) 2,123 ? -13.7°
Reaches altitude 10° 00:45:27 10° 218° (SW) 2,045 ? -13.7°
Maximum altitude 00:48:54 22° 269° (W) 1,422 ? -13.8°
Drops below altitude 10° 00:52:24 10° 320° (NW) 2,061 ? -14.0°
Sets 00:55:05 0° 336° (NNW) 2,980 ? -14.0°
